[[{"header":{"parameterUnit":"m.s-1","parameterCategory":1,"la1":30.2991,"la2":30.254,"lo1":-89.0895,"lo2":-89.0444,"dy":0.0017,"dx":0.0017,"nx":28,"ny":28,"refTime":"2024-03-20T09:00:00:Z","depth":0,"parameterNumber":2,"parameterNumberName":"U-component_of_WINDS"},"data":[0,0,0,0,0,0,0,0,0,0,0,0,0,0,0,0,0,0,0,0,0,0,0,0,0,0,0,0,0,0,0,0,0,0,0,0,0,0,0,0,0,0,0,0,0,0,0,0,0,0,0,0,0,0,0,0,0,0,1.207,1.2071,0,1.2122,1.2123,1.2123,1.2131,1.2131,1.213,1.213,1.2181,1.2183,1.2184,0,0,0,0,0,0,0,0,0,0,0,0,0,1.1975,1.1977,1.207,1.2071,1.2071,1.2122,1.2123,1.2123,1.2131,1.2131,1.213,1.213,1.218,1.2182,1.2185,0,0,0,0,0,0,0,0,0,0,0,0,0,1.202,1.1977,1.207,1.2082,1.2083,1.2122,1.2123,1.2124,1.2132,1.2131,1.213,1.213,1.218,1.2182,1.2185,1.2215,0,0,1.2193,1.2194,0,0,0,0,0,0,0,0,1.2018,1.2024,1.2079,1.2081,1.2083,1.212,1.2108,1.2154,1.2132,1.2113,1.213,1.2129,1.2161,1.2165,1.2176,1.2217,1.222,1.2193,1.2195,1.2196,1.2197,0,0,0,0,0,0,0,1.2015,1.2022,1.2091,1.208,1.2082,1.2083,1.2089,1.2117,1.214,1.2115,1.2115,1.2122,1.2162,1.2174,1.2178,1.222,1.2193,1.2196,1.2197,1.2198,1.2286,1.2287,0,0,0,0,0,0,1.201,1.2019,1.2089,1.2092,1.2048,1.2085,1.2092,1.2108,1.214,1.2144,1.2122,1.2122,1.2169,1.2174,1.2179,1.2215,1.2196,1.2199,1.22,1.2286,1.2287,1.2287,0,0,0,0,0,0,1.2008,1.2016,1.2087,1.2056,1.2065,1.2088,1.2106,1.211,1.2122,1.2146,1.2149,1.213,1.2169,1.2176,1.2206,1.2217,1.22,1.2202,1.2285,1.2286,1.2287,1.2288,0,0,0,0,0,0,1.2005,1.2015,1.2028,1.2056,1.2067,1.2113,1.2107,1.2111,1.2127,1.2127,1.2154,1.2158,1.2169,1.2202,1.2208,1.222,1.2204,1.2284,1.2285,1.2287,1.2287,1.2289,1.2291,0,0,0,0,0,1.2002,1.2026,1.2028,1.2037,1.2083,1.2114,1.212,1.2133,1.2128,1.2139,1.2154,1.2157,1.2215,1.2205,1.2212,1.2225,1.2283,1.2285,1.2287,1.2286,1.2288,1.2291,0,0,0,0,0,0,1.1998,1.203,1.2033,1.2067,1.2088,1.2115,1.2131,1.2135,1.2157,1.2156,1.2171,1.2177,1.2206,1.2219,1.2207,1.2255,1.2248,1.2252,1.2246,1.2248,1.225,1.2246,1.2206,0,0,0,0,0,1.2001,1.2025,1.2051,1.2079,1.2089,1.2108,1.2122,1.213,1.2152,1.2161,1.2178,1.2198,1.2221,1.2235,1.2257,1.2289,1.2294,1.2302,1.2303,1.2305,1.2307,1.2323,1.2326,1.2293,1.2293,1.2293,0,0,1.2008,1.2028,1.2042,1.2078,1.2095,1.2118,1.2115,1.214,1.2157,1.2164,1.2193,1.2207,1.223,1.2261,1.2275,1.2272,1.2317,1.2307,1.2308,1.2309,1.2325,1.2328,1.2331,1.2294,1.2294,1.2294,0,0,1.2031,1.205,1.2074,1.2091,1.2117,1.2129,1.2135,1.2162,1.2171,1.2201,1.2206,1.2226,1.2265,1.2281,1.2294,1.2322,1.2325,1.2329,1.2338,1.2354,1.2356,1.2359,1.2367,1.2371,1.2332,1.2332,1.2332,0,1.2036,1.2072,1.2086,1.211,1.2125,1.2133,1.2157,1.2173,1.2204,1.2213,1.221,1.2258,1.2275,1.2308,1.2315,1.2326,1.2332,1.2326,1.2355,1.2358,1.236,1.2368,1.2372,1.2332,1.2332,1.2332,1.2332,0,1.2075,1.21,1.2116,1.2147,1.2164,1.2187,1.2204,1.2219,1.2226,1.2238,1.2267,1.2287,1.2313,1.2322,1.2328,1.2356,1.2353,1.2352,1.2346,1.2363,1.2371,1.2375,1.2332,1.2332,1.2332,1.2332,0,0,1.2098,1.2135,1.2141,1.2154,1.2183,1.2201,1.2225,1.2251,1.2263,1.2284,1.2303,1.2335,1.2334,1.2349,1.2357,1.2371,1.239,1.2369,1.2369,1.2371,1.242,1.242,1.2423,1.2392,1.2393,1.2394,1.2418,0,1.2124,1.2167,1.218,1.2215,1.2237,1.2245,1.2265,1.2284,1.2296,1.2315,1.2328,1.235,1.2348,1.2357,1.2371,1.2385,1.24,1.2384,1.2409,1.241,1.2402,1.2428,1.2428,1.2449,1.2421,1.2422,1.2422,0,1.216,1.2182,1.222,1.2244,1.2254,1.2272,1.2295,1.2314,1.2335,1.2343,1.2359,1.2366,1.239,1.2382,1.2414,1.2402,1.2413,1.2422,1.2423,1.2425,1.2416,1.2429,1.2457,1.2459,1.2427,1.2427,1.2427,0,1.2171,1.221,1.2237,1.2248,1.2278,1.229,1.2303,1.2323,1.2337,1.2358,1.2367,1.239,1.2402,1.2419,1.2431,1.2425,1.2461,1.2455,1.2467,1.2466,1.2473,1.2472,1.2502,1.2482,1.2482,1.2482,1.2482,0,1.2198,1.222,1.2242,1.2259,1.2283,1.2298,1.2321,1.2334,1.2352,1.2371,1.2379,1.2396,1.2411,1.243,1.244,1.2463,1.2469,1.2475,1.2477,1.2474,1.2473,1.248,1.2479,1.2483,1.2483,1.2483,1.2483,0,1.2213,1.2229,1.2259,1.2285,1.2292,1.2309,1.233,1.2346,1.2358,1.2381,1.2387,1.2406,1.2428,1.2442,1.247,1.2477,1.2502,1.2505,1.2495,1.2496,1.2506,1.2505,1.2541,1.2546,1.2524,1.2524,1.2524,0,1.2229,1.2246,1.2274,1.2287,1.23,1.2321,1.2335,1.2349,1.2364,1.2388,1.2401,1.2424,1.2443,1.2477,1.2493,1.2514,1.2516,1.2527,1.2519,1.2515,1.2515,1.2513,1.2514,1.2528,1.2528,1.2528,1.2529,0,1.2254,1.2261,1.2282,1.2305,1.2322,1.2341,1.236,1.237,1.2387,1.2402,1.2425,1.244,1.2468,1.249,1.2513,1.2525,1.2529,1.2531,1.2535,1.2531,1.2524,1.2527,1.2498,1.253,1.253,1.253,1.253,1.253,1.227,1.2285,1.2306,1.2329,1.2344,1.2361,1.2377,1.2391,1.2411,1.2435,1.2442,1.2466,1.2485,1.2516,1.2528,1.2546,1.2545,1.255,1.2551,1.2552,1.2552,1.2522,1.2551,1.255,1.255,1.255,1.255,0,1.2294,1.2308,1.2329,1.2355,1.2372,1.2375,1.2396,1.241,1.2431,1.2449,1.2467,1.2493,1.2514,1.2531,1.2552,1.2563,1.2565,1.2568,1.2567,1.2569,1.2553,1.2547,1.2566,1.2566,1.2566,1.2566,1.2566,1.2566,1.2309,1.2334,1.2344,1.2376,1.239,1.2414,1.2425,1.244,1.2454,1.2483,1.2501,1.2512,1.2529,1.2552,1.2571,1.2575,1.2582,1.2584,1.2589,1.2572,1.2571,1.2569,1.2564,1.2586,1.2586,1.2604,1.2604,1.2604]},{"header":{"parameterUnit":"m.s-1","parameterCategory":1,"la1":30.2991,"la2":30.254,"lo1":-89.0895,"lo2":-89.0444,"dy":0.0017,"dx":0.0017,"nx":28,"ny":28,"refTime":"2024-03-20T09:00:00:Z","depth":0,"parameterNumber":3,"parameterNumberName":"V-component_of_WINDS"},"data":[0,0,0,0,0,0,0,0,0,0,0,0,0,0,0,0,0,0,0,0,0,0,0,0,0,0,0,0,0,0,0,0,0,0,0,0,0,0,0,0,0,0,0,0,0,0,0,0,0,0,0,0,0,0,0,0,0,0,2.384,2.3841,0,2.388,2.3881,2.3881,2.3865,2.3864,2.3863,2.3862,2.3901,2.3903,2.3905,0,0,0,0,0,0,0,0,0,0,0,0,0,2.3745,2.3747,2.384,2.3841,2.3841,2.388,2.3881,2.3881,2.3865,2.3864,2.3863,2.3862,2.39,2.3903,2.3905,0,0,0,0,0,0,0,0,0,0,0,0,0,2.3786,2.3748,2.384,2.3838,2.3838,2.388,2.3881,2.3882,2.3866,2.3864,2.3863,2.3861,2.39,2.3902,2.3905,2.3951,0,0,2.3914,2.3915,0,0,0,0,0,0,0,0,2.3784,2.379,2.3838,2.3838,2.3838,2.3866,2.3862,2.3905,2.3866,2.3855,2.3862,2.3861,2.389,2.3894,2.3904,2.3953,2.3954,2.3914,2.3916,2.3917,2.3918,0,0,0,0,0,0,0,2.3781,2.3788,2.3856,2.3838,2.3839,2.3834,2.3838,2.387,2.388,2.3856,2.3855,2.386,2.389,2.3902,2.3905,2.3955,2.3914,2.3917,2.3918,2.3919,2.4041,2.4042,0,0,0,0,0,0,2.3779,2.3786,2.3855,2.3857,2.3807,2.3836,2.3841,2.3859,2.388,2.3882,2.3861,2.3859,2.3898,2.3902,2.3907,2.396,2.3917,2.392,2.3921,2.4039,2.4041,2.4043,0,0,0,0,0,0,2.3777,2.3785,2.3853,2.3821,2.3829,2.384,2.3859,2.386,2.3872,2.3884,2.3885,2.3871,2.3897,2.3903,2.394,2.3961,2.3921,2.3924,2.4037,2.404,2.4042,2.4069,0,0,0,0,0,0,2.3774,2.3784,2.3803,2.3822,2.3831,2.3887,2.3861,2.3862,2.3877,2.3875,2.3893,2.3895,2.3896,2.3936,2.3943,2.3965,2.3926,2.4036,2.4039,2.4041,2.4066,2.4072,2.4076,0,0,0,0,0,2.3771,2.3809,2.3804,2.3812,2.3855,2.3888,2.3893,2.3894,2.3879,2.3897,2.3904,2.3895,2.3958,2.394,2.3947,2.397,2.4034,2.4038,2.4041,2.4064,2.4071,2.4076,0,0,0,0,0,0,2.3792,2.3811,2.3806,2.3852,2.3868,2.3885,2.3908,2.3902,2.3923,2.392,2.3919,2.3923,2.3962,2.397,2.3949,2.4015,2.3994,2.3999,2.4008,2.4015,2.402,2.4017,2.3928,0,0,0,0,0,2.3802,2.3828,2.3843,2.3882,2.3891,2.3898,2.3913,2.3912,2.3929,2.3936,2.3946,2.3962,2.3985,2.4,2.4023,2.4067,2.407,2.4087,2.4092,2.4096,2.41,2.4123,2.413,2.4054,2.4054,2.4054,0,0,2.3822,2.3836,2.3853,2.3886,2.3899,2.3925,2.3904,2.3933,2.3952,2.394,2.3975,2.3983,2.4001,2.4042,2.406,2.405,2.4122,2.4101,2.4104,2.4106,2.4127,2.4134,2.414,2.4056,2.4056,2.4055,0,0,2.3873,2.3887,2.392,2.3933,2.3953,2.3958,2.3965,2.3983,2.3988,2.4024,2.4015,2.4037,2.4078,2.409,2.4102,2.4156,2.4147,2.4163,2.419,2.4212,2.4218,2.4223,2.4241,2.4248,2.4167,2.4168,2.4168,0,2.3896,2.3936,2.3937,2.3967,2.3981,2.3972,2.4004,2.4016,2.4042,2.4052,2.404,2.409,2.4101,2.4144,2.4157,2.4167,2.4175,2.4161,2.4217,2.4223,2.4228,2.4244,2.4251,2.4169,2.4169,2.4169,2.4169,0,2.3963,2.399,2.4014,2.404,2.4057,2.4088,2.4092,2.4109,2.4106,2.4111,2.4147,2.416,2.4184,2.4194,2.4192,2.4236,2.4229,2.4217,2.4196,2.4236,2.4252,2.4259,2.4172,2.4171,2.4171,2.417,0,0,2.4028,2.4053,2.4062,2.4073,2.4093,2.4114,2.4144,2.4168,2.4181,2.4199,2.4223,2.4257,2.4246,2.4259,2.4258,2.4277,2.4317,2.4263,2.4264,2.4272,2.4365,2.4372,2.438,2.4312,2.4313,2.4314,2.4363,0,2.408,2.4132,2.4134,2.4181,2.4206,2.4197,2.4222,2.4236,2.4242,2.4262,2.4268,2.4292,2.4276,2.4284,2.4303,2.4309,2.4336,2.4305,2.4332,2.4333,2.4327,2.4389,2.4397,2.4442,2.4369,2.437,2.4371,0,2.4147,2.4167,2.4217,2.4233,2.4243,2.4266,2.4287,2.4308,2.4324,2.4326,2.434,2.4336,2.4364,2.4342,2.438,2.436,2.4371,2.4375,2.4377,2.4379,2.4354,2.4391,2.4457,2.4463,2.4381,2.438,2.4379,0,2.4188,2.4228,2.4262,2.4272,2.4292,2.4308,2.4316,2.4331,2.4344,2.4363,2.4371,2.4393,2.4404,2.442,2.442,2.4405,2.4458,2.4437,2.446,2.446,2.4471,2.447,2.4538,2.448,2.448,2.448,2.448,0,2.4245,2.4275,2.4281,2.4302,2.4335,2.4336,2.4369,2.4376,2.4388,2.441,2.4403,2.4423,2.4423,2.4443,2.4444,2.4475,2.448,2.4482,2.4481,2.4482,2.4481,2.4488,2.4485,2.4482,2.4481,2.4481,2.4481,0,2.4296,2.4301,2.4338,2.4353,2.4358,2.4382,2.4394,2.4413,2.4418,2.4445,2.4451,2.4458,2.4481,2.4483,2.451,2.451,2.4547,2.4544,2.4542,2.4541,2.4563,2.456,2.4637,2.4647,2.4583,2.4584,2.4584,0,2.4332,2.4355,2.4372,2.4387,2.4396,2.4419,2.4433,2.4434,2.4448,2.4467,2.4484,2.4506,2.4524,2.4561,2.4568,2.4588,2.4584,2.461,2.4587,2.4586,2.4583,2.4581,2.4582,2.4614,2.4614,2.4615,2.4615,0,2.4393,2.4394,2.4415,2.4437,2.4453,2.447,2.4486,2.4497,2.45,2.4516,2.454,2.4554,2.4581,2.4603,2.4622,2.463,2.4622,2.4623,2.4629,2.4629,2.4626,2.4626,2.4552,2.4621,2.462,2.462,2.462,2.4619,2.4437,2.4456,2.4472,2.4494,2.4506,2.4521,2.4539,2.4546,2.4566,2.4588,2.4587,2.4613,2.4626,2.4652,2.4661,2.468,2.4671,2.468,2.4682,2.4684,2.4686,2.4624,2.4683,2.4683,2.4683,2.4683,2.4683,0,2.4497,2.4506,2.4527,2.4549,2.4567,2.4559,2.4576,2.459,2.4613,2.4627,2.4644,2.4671,2.4691,2.4699,2.4719,2.4733,2.473,2.4738,2.4736,2.4738,2.4693,2.4685,2.474,2.474,2.474,2.474,2.474,2.474,2.453,2.4563,2.4565,2.4602,2.4611,2.4636,2.4646,2.4659,2.4669,2.4699,2.4717,2.4722,2.4732,2.4753,2.4771,2.4773,2.4779,2.4789,2.4789,2.4747,2.4741,2.4736,2.4728,2.4791,2.4791,2.4831,2.4832,2.4832]}]]